Regional Weather Roundup
Issued by NWS

Home | Current Version | Previous Version | Graphics & Text | Print | Product List | Glossary On
Versions: 1 2 3 4 5 6 7 8 9 10 11 12 13 14 15 16 17 18 19 20 21 22 23 24 25 26 27 28 29 30 31 32 33 34 35 36 37 38 39 40 41 42 43 44 45 46 47 48 49 50
000
ASUS43 KIND 250209
RWRIN

WEATHER ROUNDUP FOR INDIANA
NATIONAL WEATHER SERVICE INDIANAPOLIS IN
900 PM EST SAT JAN 24 2015

NOTE: "FAIR" INDICATES FEW OR NO CLOUDS BELOW 12,000 FEET WITH NO
SIGNIFICANT WEATHER AND/OR OBSTRUCTIONS TO VISIBILITY.

* - STATION DOES NOT REPORT WEATHER SUCH AS PRECIPITATION OR FOG.

+ - STATION NOT QUALITY CONTROLLED BY THE NATIONAL WEATHER SERVICE.
    USE DATA WITH CAUTION...ESPECIALLY DEWPOINT AND RELATIVE
    HUMIDITY OBSERVATIONS.

INZ001>003-010>013-019-020-250300-
NORTHWEST INDIANA

CITY           SKY/WX    TMP DP  RH WIND       PRES   REMARKS
GARY /AIRPORT/ MOCLDY    36  28  75 VRB5      29.67F
KNOX *+        MOCLDY    34  27  75 SW8       29.68F WCI  28
LA PORTE +     CLOUDY    37  35  91 CALM      29.69R
MICHIGAN CITY+ CLOUDY    36  28  75 CALM      29.69S
MONTICELLO +   PTCLDY    34  32  95 SW5       29.71F WCI  29
RENSSELAER +   CLEAR     34  34 100 SW7       29.70F WCI  28
VALPARAISO     MOCLDY    35  33  92 SW7       29.67F WCI  29

$$

LMZ046-743>745-250300-
SOUTHERN LAKE MICHIGAN

STATION/POSITION TIME  TEMP WIND        PRES
                       AIR  DIR/SP/G
                 (UTC) (F)  (DEG/KT/KT) (MB)
MICHIGAN CITY    0200   35  230/  9/ 10   N/A

$$

INZ004-005-014>016-021>024-250300-
NORTH CENTRAL INDIANA

CITY           SKY/WX    TMP DP  RH WIND       PRES   REMARKS
GOSHEN         CLOUDY    36  32  85 SW5       29.68R
LOGANSPORT +   CLOUDY    36  34  93 SW8       29.72S
PERU/GRISSOM   CLOUDY    38  35  89 SW10      29.71S
ROCHESTER +    MOCLDY    37  36  93 SW8       29.70S
SOUTH BEND     CLOUDY    37  33  85 SW7       29.69R
WARSAW +       CLOUDY    36  34  93 SW7       29.68S

$$

INZ006>009-017-018-025>027-250300-
NORTHEAST INDIANA

CITY           SKY/WX    TMP DP  RH WIND       PRES   REMARKS
ANGOLA *+      CLOUDY    36  25  64 SW5       29.68R
AUBURN +       CLOUDY    36  32  87 SW3       29.70R
FORT WAYNE     CLOUDY    35  32  88 SW8       29.71S WCI  29
HUNTINGTON +   CLOUDY    36  31  81 SW3       29.70S

$$

INZ028-029-035-036-043>045-051>053-250300-
WEST CENTRAL INDIANA

CITY           SKY/WX    TMP DP  RH WIND       PRES   REMARKS
CRAWFORDSVL +  CLEAR     32  27  80 S6        29.74  WCI  26
GREENCASTLE +  CLEAR     36  30  80 SW3       29.75F
LAFAYETTE      CLEAR     35  33  92 CALM      29.72F
TERRE HAUTE    CLEAR     37  31  78 SW7       29.77S

$$

INZ030>032-037>040-046>048-054>057-064-065-250300-
CENTRAL INDIANA

CITY           SKY/WX    TMP DP  RH WIND       PRES   REMARKS
CP ATTERBURY + CLEAR     30  27  86 CALM      29.78S
INDIANAPOLIS   PTCLDY    31  28  89 S7        29.75S WCI  24
-EAGLE CREEK   CLEAR     34  30  85 S5        29.74F WCI  30
KOKOMO *+      CLOUDY    37  34  87 SW12      29.72F
MARION +       CLOUDY    36  32  87 SW10      29.73F
MT COMFORT *+  PTCLDY    34  25  69 S6        29.76S WCI  29
SHELBYVILLE    PTCLDY    34  28  79 S8        29.77R WCI  27
ZIONSVILLE +   PTCLDY    35  30  83 S6        29.74F WCI  29

$$

INZ033-034-041-042-049-050-058-059-250300-
EAST CENTRAL INDIANA

CITY           SKY/WX    TMP DP  RH WIND       PRES   REMARKS
MUNCIE         CLOUDY    37  30  75 SW7       29.73S

$$

INZ060-061-067>069-081>083-085>088-250300-
SOUTHWEST INDIANA

CITY           SKY/WX    TMP DP  RH WIND       PRES   REMARKS
EVANSVILLE     CLEAR     39  29  67 SW7       29.83S
HUNTINGBURG *+ CLEAR     37  28  70 S6        29.83S
WASHINGTON +   CLEAR     34  30  86 S6        29.80S WCI  28

$$

INZ062-063-066-070>080-084-089>092-250300-
SOUTH CENTRAL AND SOUTHEAST INDIANA

CITY           SKY/WX    TMP DP  RH WIND       PRES   REMARKS
BLOOMINGTON    CLEAR     36  31  82 SW7       29.78S
NORTH VERNON + CLEAR     32  30  93 S6        29.80  WCI  26

$$




USA.gov is the U.S. government's official web portal to all federal, state and local government web resources and services.